Time,TemperatureF,DewpointF,PressureIn,WindDirection,WindDirectionDegrees,WindSpeedMPH,WindSpeedGustMPH,Humidity,HourlyPrecipIn,Conditions,Clouds,dailyrainin,SoftwareType,DateUTC
2013-01-27 00:03:00,15.5,7.0,30.59,South,190,2.0,9.0,68,0.00,,,0.00,weatherlink.com 1.10,2013-01-27 05:03:00,
2013-01-27 00:18:00,15.2,7.0,30.59,SW,233,3.0,5.0,69,0.00,,,0.00,weatherlink.com 1.10,2013-01-27 05:18:00,
2013-01-27 00:33:00,15.1,7.0,30.59,SSW,210,3.0,9.0,70,0.00,,,0.00,weatherlink.com 1.10,2013-01-27 05:33:00,
2013-01-27 00:48:00,15.1,7.0,30.59,SW,217,4.0,7.0,70,0.00,,,0.00,weatherlink.com 1.10,2013-01-27 05:48:00,
2013-01-27 01:04:00,14.7,7.0,30.59,ESE,114,2.0,5.0,72,0.00,,,0.00,weatherlink.com 1.10,2013-01-27 06:04:00,
2013-01-27 01:19:00,14.5,7.0,30.60,West,279,1.0,8.0,73,0.00,,,0.00,weatherlink.com 1.10,2013-01-27 06:19:00,
2013-01-27 01:34:00,14.3,7.0,30.61,WSW,252,4.0,7.0,73,0.00,,,0.00,weatherlink.com 1.10,2013-01-27 06:34:00,
2013-01-27 01:49:00,14.3,7.0,30.61,SSE,147,1.0,14.0,73,0.00,,,0.00,weatherlink.com 1.10,2013-01-27 06:49:00,
2013-01-27 02:04:00,14.2,7.0,30.62,South,176,4.0,10.0,74,0.00,,,0.00,weatherlink.com 1.10,2013-01-27 07:04:00,
2013-01-27 02:19:00,14.1,7.0,30.62,SSW,200,3.0,10.0,74,0.00,,,0.00,weatherlink.com 1.10,2013-01-27 07:19:00,
2013-01-27 02:34:00,14.1,7.0,30.62,WSW,252,3.0,9.0,74,0.00,,,0.00,weatherlink.com 1.10,2013-01-27 07:34:00,
2013-01-27 02:49:00,14.1,8.0,30.62,SW,225,2.0,9.0,75,0.00,,,0.00,weatherlink.com 1.10,2013-01-27 07:49:00,
2013-01-27 03:04:00,13.9,7.0,30.62,South,169,2.0,10.0,75,0.00,,,0.00,weatherlink.com 1.10,2013-01-27 08:04:00,
2013-01-27 03:19:00,13.9,8.0,30.62,SSW,198,6.0,10.0,76,0.00,,,0.00,weatherlink.com 1.10,2013-01-27 08:19:00,
2013-01-27 03:34:00,13.7,7.0,30.63,SSW,192,2.0,9.0,76,0.00,,,0.00,weatherlink.com 1.10,2013-01-27 08:34:00,
2013-01-27 03:49:00,13.6,8.0,30.63,SW,216,2.0,9.0,77,0.00,,,0.00,weatherlink.com 1.10,2013-01-27 08:49:00,
2013-01-27 04:04:00,13.6,8.0,30.64,SSW,201,4.0,9.0,78,0.00,,,0.00,weatherlink.com 1.10,2013-01-27 09:04:00,
2013-01-27 04:19:00,13.5,8.0,30.64,SSW,198,5.0,7.0,79,0.00,,,0.00,weatherlink.com 1.10,2013-01-27 09:19:00,
2013-01-27 04:34:00,13.8,8.0,30.64,South,174,2.0,10.0,79,0.00,,,0.00,weatherlink.com 1.10,2013-01-27 09:34:00,
2013-01-27 04:49:00,14.1,9.0,30.64,East,84,1.0,10.0,80,0.00,,,0.00,weatherlink.com 1.10,2013-01-27 09:49:00,
2013-01-27 05:04:00,14.3,9.0,30.64,SSW,205,6.0,11.0,80,0.00,,,0.00,weatherlink.com 1.10,2013-01-27 10:04:00,
2013-01-27 05:19:00,14.2,9.0,30.64,SSW,205,5.0,14.0,80,0.00,,,0.00,weatherlink.com 1.10,2013-01-27 10:19:00,
2013-01-27 05:34:00,14.3,10.0,30.65,South,178,0.0,9.0,81,0.00,,,0.00,weatherlink.com 1.10,2013-01-27 10:34:00,
2013-01-27 05:49:00,14.3,10.0,30.65,SSW,192,0.0,10.0,81,0.00,,,0.00,weatherlink.com 1.10,2013-01-27 10:49:00,
2013-01-27 06:04:00,14.5,10.0,30.66,SSW,192,4.0,9.0,81,0.00,,,0.00,weatherlink.com 1.10,2013-01-27 11:04:00,
2013-01-27 06:19:00,14.6,10.0,30.66,SW,215,3.0,8.0,81,0.00,,,0.00,weatherlink.com 1.10,2013-01-27 11:19:00,
2013-01-27 06:34:00,14.6,10.0,30.66,WSW,254,6.0,10.0,81,0.00,,,0.00,weatherlink.com 1.10,2013-01-27 11:34:00,
2013-01-27 06:49:00,14.4,10.0,30.66,SW,235,3.0,10.0,81,0.00,,,0.00,weatherlink.com 1.10,2013-01-27 11:49:00,
2013-01-27 07:04:00,14.3,10.0,30.67,WSW,251,5.0,6.0,81,0.00,,,0.00,weatherlink.com 1.10,2013-01-27 12:04:00,
2013-01-27 07:19:00,14.2,10.0,30.68,SSE,163,1.0,7.0,82,0.00,,,0.00,weatherlink.com 1.10,2013-01-27 12:19:00,
2013-01-27 07:34:00,14.2,10.0,30.69,SSW,206,2.0,8.0,82,0.00,,,0.00,weatherlink.com 1.10,2013-01-27 12:34:00,
2013-01-27 07:49:00,14.5,10.0,30.70,WSW,237,1.0,8.0,82,0.00,,,0.00,weatherlink.com 1.10,2013-01-27 12:49:00,
2013-01-27 08:04:00,14.9,10.0,30.70,South,190,4.0,8.0,81,0.00,,,0.00,weatherlink.com 1.10,2013-01-27 13:04:00,
2013-01-27 08:19:00,15.1,10.0,30.70,South,185,7.0,11.0,80,0.00,,,0.00,weatherlink.com 1.10,2013-01-27 13:19:00,
2013-01-27 08:34:00,15.4,10.0,30.71,South,173,0.0,8.0,80,0.00,,,0.00,weatherlink.com 1.10,2013-01-27 13:34:00,
2013-01-27 08:49:00,15.9,11.0,30.71,WSW,242,2.0,7.0,79,0.00,,,0.00,weatherlink.com 1.10,2013-01-27 13:49:00,
2013-01-27 09:04:00,16.7,11.0,30.72,South,173,4.0,8.0,77,0.00,,,0.00,weatherlink.com 1.10,2013-01-27 14:04:00,
2013-01-27 09:19:00,17.7,11.0,30.72,South,173,2.0,7.0,75,0.00,,,0.00,weatherlink.com 1.10,2013-01-27 14:19:00,
2013-01-27 09:34:00,19.0,12.0,30.73,South,190,1.0,6.0,73,0.00,,,0.00,weatherlink.com 1.10,2013-01-27 14:34:00,
2013-01-27 09:50:00,21.1,12.0,30.74,SE,126,2.0,7.0,69,0.00,,,0.00,weatherlink.com 1.10,2013-01-27 14:50:00,
2013-01-27 10:05:00,21.9,12.0,30.74,SSE,150,1.0,7.0,66,0.00,,,0.00,weatherlink.com 1.10,2013-01-27 15:05:00,
2013-01-27 10:20:00,22.6,12.0,30.75,South,182,1.0,5.0,65,0.00,,,0.00,weatherlink.com 1.10,2013-01-27 15:20:00,
2013-01-27 10:35:00,24.7,12.0,30.76,SSW,196,4.0,5.0,60,0.00,,,0.00,weatherlink.com 1.10,2013-01-27 15:35:00,
2013-01-27 10:50:00,25.7,13.0,30.75,WNW,295,2.0,6.0,59,0.00,,,0.00,weatherlink.com 1.10,2013-01-27 15:50:00,
2013-01-27 11:05:00,27.4,12.0,30.75,WSW,244,5.0,7.0,53,0.00,,,0.00,weatherlink.com 1.10,2013-01-27 16:05:00,
2013-01-27 11:20:00,28.9,12.0,30.75,West,265,3.0,5.0,50,0.00,,,0.00,weatherlink.com 1.10,2013-01-27 16:20:00,
2013-01-27 11:35:00,28.2,10.0,30.75,SE,126,1.0,10.0,47,0.00,,,0.00,weatherlink.com 1.10,2013-01-27 16:35:00,
2013-01-27 11:50:00,29.5,12.0,30.74,SSW,201,1.0,6.0,48,0.00,,,0.00,weatherlink.com 1.10,2013-01-27 16:50:00,
2013-01-27 12:05:00,29.9,10.0,30.73,WSW,246,3.0,6.0,44,0.00,,,0.00,weatherlink.com 1.10,2013-01-27 17:05:00,
2013-01-27 12:20:00,30.2,10.0,30.72,WNW,286,2.0,6.0,43,0.00,,,0.00,weatherlink.com 1.10,2013-01-27 17:20:00,
2013-01-27 12:35:00,30.5,9.0,30.71,South,177,2.0,9.0,41,0.00,,,0.00,weatherlink.com 1.10,2013-01-27 17:35:00,
2013-01-27 12:50:00,31.5,10.0,30.70,SSW,202,2.0,8.0,40,0.00,,,0.00,weatherlink.com 1.10,2013-01-27 17:50:00,
2013-01-27 13:05:00,32.2,9.0,30.70,NW,306,0.0,6.0,38,0.00,,,0.00,weatherlink.com 1.10,2013-01-27 18:05:00,
2013-01-27 13:20:00,32.4,9.0,30.70,NNW,328,2.0,8.0,38,0.00,,,0.00,weatherlink.com 1.10,2013-01-27 18:20:00,
2013-01-27 13:35:00,32.8,9.0,30.69,SSW,205,1.0,6.0,37,0.00,,,0.00,weatherlink.com 1.10,2013-01-27 18:35:00,
2013-01-27 13:50:00,34.8,11.0,30.69,West,260,0.0,3.0,38,0.00,,,0.00,weatherlink.com 1.10,2013-01-27 18:50:00,
2013-01-27 14:05:00,34.5,8.0,30.70,South,184,1.0,6.0,33,0.00,,,0.00,weatherlink.com 1.10,2013-01-27 19:05:00,
2013-01-27 14:20:00,34.0,7.0,30.69,South,184,2.0,9.0,32,0.00,,,0.00,weatherlink.com 1.10,2013-01-27 19:20:00,
2013-01-27 14:35:00,35.1,8.0,30.69,WSW,246,0.0,4.0,32,0.00,,,0.00,weatherlink.com 1.10,2013-01-27 19:35:00,
2013-01-27 14:50:00,34.4,7.0,30.69,West,259,1.0,6.0,31,0.00,,,0.00,weatherlink.com 1.10,2013-01-27 19:50:00,
2013-01-27 15:05:00,34.2,8.0,30.69,NNW,338,0.0,4.0,33,0.00,,,0.00,weatherlink.com 1.10,2013-01-27 20:05:00,
2013-01-27 15:20:00,32.6,5.0,30.69,ESE,123,2.0,4.0,31,0.00,,,0.00,weatherlink.com 1.10,2013-01-27 20:20:00,
2013-01-27 15:35:00,31.4,6.0,30.69,WSW,244,2.0,2.0,34,0.00,,,0.00,weatherlink.com 1.10,2013-01-27 20:35:00,
2013-01-27 15:50:00,30.6,5.0,30.68,SE,141,0.0,5.0,34,0.00,,,0.00,weatherlink.com 1.10,2013-01-27 20:50:00,
2013-01-27 16:05:00,29.9,5.0,30.69,SE,141,0.0,2.0,35,0.00,,,0.00,weatherlink.com 1.10,2013-01-27 21:05:00,
2013-01-27 16:20:00,29.7,5.0,30.71,SSE,151,0.0,4.0,35,0.00,,,0.00,weatherlink.com 1.10,2013-01-27 21:20:00,
2013-01-27 16:35:00,29.6,4.0,30.71,SSE,160,2.0,3.0,34,0.00,,,0.00,weatherlink.com 1.10,2013-01-27 21:35:00,
2013-01-27 16:50:00,29.1,7.0,30.71,South,173,1.0,1.0,39,0.00,,,0.00,weatherlink.com 1.10,2013-01-27 21:50:00,
2013-01-27 17:05:00,28.3,6.0,30.71,South,173,0.0,3.0,39,0.00,,,0.00,weatherlink.com 1.10,2013-01-27 22:05:00,
2013-01-27 17:21:00,28.1,8.0,30.71,SE,139,0.0,2.0,42,0.00,,,0.00,weatherlink.com 1.10,2013-01-27 22:21:00,
2013-01-27 17:36:00,27.8,7.0,30.71,SE,139,0.0,2.0,42,0.00,,,0.00,weatherlink.com 1.10,2013-01-27 22:36:00,
2013-01-27 17:51:00,26.7,7.0,30.72,SSE,155,2.0,2.0,43,0.00,,,0.00,weatherlink.com 1.10,2013-01-27 22:51:00,
2013-01-27 18:06:00,26.1,7.0,30.72,SSE,155,0.0,1.0,45,0.00,,,0.00,weatherlink.com 1.10,2013-01-27 23:06:00,
2013-01-27 18:21:00,26.2,7.0,30.72,SSE,148,0.0,1.0,44,0.00,,,0.00,weatherlink.com 1.10,2013-01-27 23:21:00,
2013-01-27 18:36:00,26.3,7.0,30.72,South,171,0.0,1.0,44,0.00,,,0.00,weatherlink.com 1.10,2013-01-27 23:36:00,
2013-01-27 18:51:00,26.8,7.0,30.73,South,188,0.0,4.0,44,0.00,,,0.00,weatherlink.com 1.10,2013-01-27 23:51:00,
2013-01-27 19:06:00,26.7,8.0,30.73,South,188,0.0,3.0,46,0.00,,,0.00,weatherlink.com 1.10,2013-01-28 00:06:00,
2013-01-27 19:21:00,27.0,8.0,30.73,SSW,192,0.0,5.0,45,0.00,,,0.00,weatherlink.com 1.10,2013-01-28 00:21:00,
2013-01-27 19:36:00,26.6,10.0,30.73,South,178,0.0,3.0,50,0.00,,,0.00,weatherlink.com 1.10,2013-01-28 00:36:00,
2013-01-27 19:51:00,25.7,9.0,30.73,South,174,0.0,3.0,50,0.00,,,0.00,weatherlink.com 1.10,2013-01-28 00:51:00,
2013-01-27 20:06:00,25.5,10.0,30.73,South,184,2.0,3.0,51,0.00,,,0.00,weatherlink.com 1.10,2013-01-28 01:06:00,
2013-01-27 20:21:00,25.7,10.0,30.73,SE,140,0.0,3.0,51,0.00,,,0.00,weatherlink.com 1.10,2013-01-28 01:21:00,
2013-01-27 20:36:00,25.1,10.0,30.72,SSW,196,0.0,3.0,54,0.00,,,0.00,weatherlink.com 1.10,2013-01-28 01:36:00,
2013-01-27 20:51:00,24.3,10.0,30.72,South,184,1.0,4.0,55,0.00,,,0.00,weatherlink.com 1.10,2013-01-28 01:51:00,
2013-01-27 21:06:00,23.5,10.0,30.72,South,184,0.0,1.0,57,0.00,,,0.00,weatherlink.com 1.10,2013-01-28 02:06:00,
2013-01-27 21:21:00,22.8,11.0,30.73,South,184,1.0,3.0,60,0.00,,,0.00,weatherlink.com 1.10,2013-01-28 02:21:00,
2013-01-27 21:36:00,23.1,10.0,30.73,South,174,2.0,2.0,58,0.00,,,0.00,weatherlink.com 1.10,2013-01-28 02:36:00,
2013-01-27 21:51:00,22.7,10.0,30.73,South,174,0.0,1.0,59,0.00,,,0.00,weatherlink.com 1.10,2013-01-28 02:51:00,
2013-01-27 22:06:00,22.1,11.0,30.72,South,174,0.0,2.0,62,0.00,,,0.00,weatherlink.com 1.10,2013-01-28 03:06:00,
2013-01-27 22:21:00,21.5,10.0,30.72,South,174,0.0,1.0,61,0.00,,,0.00,weatherlink.com 1.10,2013-01-28 03:21:00,
2013-01-27 22:36:00,21.0,10.0,30.71,South,174,0.0,0.0,63,0.00,,,0.00,weatherlink.com 1.10,2013-01-28 03:36:00,
2013-01-27 22:51:00,20.6,10.0,30.71,South,174,0.0,1.0,64,0.00,,,0.00,weatherlink.com 1.10,2013-01-28 03:51:00,
2013-01-27 23:06:00,20.9,10.0,30.71,South,174,0.0,1.0,64,0.00,,,0.00,weatherlink.com 1.10,2013-01-28 04:06:00,
2013-01-27 23:21:00,20.9,10.0,30.71,South,174,0.0,0.0,62,0.00,,,0.00,weatherlink.com 1.10,2013-01-28 04:21:00,
2013-01-27 23:36:00,20.8,10.0,30.71,South,174,0.0,0.0,64,0.00,,,0.00,weatherlink.com 1.10,2013-01-28 04:36:00,
2013-01-27 23:51:00,20.8,9.0,30.72,South,174,0.0,0.0,61,0.00,,,0.00,weatherlink.com 1.10,2013-01-28 04:51:00,